Content
SEND FEEDBACK

Daily
Averages
Monthly
Summary
United States of America

NEW PALTZ, NEW YORK


Home > North America > United States > New York
Elevation: 1243 feet     Latitude: 41 08N     Longitude: 074 33W

WEATHER
 
SELECT A DAY
Number of Records: 175,278;   Date Range: 1/1/95 - 7/22/14
 
SHARE

PRINT THIS DATA

[ ← Previous Day ]
WEATHER ALMANAC - AUGUST 28, 2013
[ Next Day → ]
[ °C ]   °F
Weather ElementAverageHighLow
Temperature73.7 °F82.9 °F (12:56 pm)66.9 °F (3:56 am)
Dewpoint67 °F69.1 °F (2:56 pm)64.9 °F (3:56 am)
Humidity80.5 %93 % (2:56 am)56 % (12:56 pm)
Barometer29.87 in29.89 in (9:56 pm)29.86 in (2:56 am)
Wind Speed3.6 mph8.1 mph (1:56 pm)
Weather ElementAverage
Visibility9.4 mi
Wind DirectionSSE (141.3 °)

Weather ElementTotal
Precipitation---
Cooling Degree Days9.9 (Base 65)
Growing Degree Days24.9 (Base 50)
Averaged from 23 records on August 28, 2013
WEATHER CONDITIONS BREAKOUT
WIND DIRECTION BREAKOUT
WEATHER BY HOUR - AUGUST 28, 2013
[ °C ]   °F
Local TimeTemperatureDewpointHumidityBarometerVisibilityWind DirectionWind SpeedGust SpeedPrecipitationEventsConditions
1:56 AM69.1 °F66.0 °F90 %29.88 in10.0 miCalmMostly Cloudy
2:56 AM68.0 °F66.0 °F93 %29.86 in10.0 miCalmClear
3:56 AM66.9 °F64.9 °F93 %29.86 in10.0 miNW (310°)3.5 mphClear
4:56 AM68.0 °F64.9 °F90 %29.86 in10.0 miCalmPartly Cloudy
5:56 AM68.0 °F64.9 °F90 %29.86 in10.0 miCalmScattered Clouds
6:56 AM68.0 °F64.9 °F90 %29.88 in10.0 miCalmScattered Clouds
7:56 AM75.0 °F66.9 °F76 %29.88 in10.0 miEast (80°)3.5 mphPartly Cloudy
8:56 AM77.0 °F66.9 °F71 %29.88 in10.0 miEast (80°)5.8 mphClear
9:56 AM79.0 °F66.9 °F66 %29.88 in10.0 miESE (120°)5.8 mphClear
10:56 AM81.0 °F66.9 °F62 %29.88 in10.0 miSSE (150°)6.9 mphPartly Cloudy
11:56 AM82.0 °F66.0 °F58 %29.87 in10.0 miSSE (150°)5.8 mphScattered Clouds
12:56 PM82.9 °F66.0 °F56 %29.86 in10.0 miEast (90°)4.6 mphMostly Cloudy
1:56 PM79.0 °F66.9 °F66 %29.86 in10.0 miSW (230°)8.1 mphOvercast
2:56 PM75.0 °F69.1 °F82 %29.86 in8.0 miWest (270°)4.6 mphMostly Cloudy
3:56 PM75.0 °F69.1 °F82 %29.87 in9.0 miWNW (300°)8.1 mphMostly Cloudy
4:56 PM75.0 °F69.1 °F82 %29.86 in8.0 miWNW (300°)3.5 mphMostly Cloudy
5:56 PM75.0 °F69.1 °F82 %29.86 in9.0 miNW (320°)5.8 mphMostly Cloudy
6:56 PM73.9 °F69.1 °F85 %29.86 in7.0 miNNW (330°)3.5 mph0.00 inMostly Cloudy
7:56 PM72.0 °F69.1 °F91 %29.86 in7.0 miESE (110°)4.6 mphScattered Clouds
8:56 PM72.0 °F69.1 °F91 %29.88 in9.0 miNE (50°)5.8 mphClear
9:56 PM72.0 °F68.0 °F87 %29.89 in10.0 miNorth (360°)3.5 mphClear
10:56 PM72.0 °F66.0 °F81 %29.88 in10.0 miCalmClear
11:56 PM70.0 °F66.0 °F87 %29.89 in10.0 miCalmClear
Hourly data recorded from KHPN, located miles away from New Paltz, New York







STORIES FROM OUR PARTNERS